Regional Weather Roundup
Issued by NWS State College, PA

Home | Current Version | Previous Version | Graphics & Text | Print | Product List | Glossary On
Versions: 1 2 3 4 5 6 7 8 9 10 11 12 13 14 15 16 17 18 19 20 21 22 23 24 25 26 27 28 29 30 31 32 33 34 35 36 37 38 39 40 41 42 43 44 45 46 47 48 49 50
000
ASUS41 KCTP 181810
RWRCTP

REGIONAL WEATHER ROUNDUP
NATIONAL WEATHER SERVICE STATE COLLEGE PA
200 PM EDT THU SEP 18 2014

Note: "fair" indicates few or no clouds below 12,000 feet with no
significant weather and/or obstructions to visibility.

* = STATION THAT DOES NOT REPORT PRECIPITATION /E.G. RAIN...SNOW...ETC/
    THUNDER OR FOG.

PAZ002>004-007>009-013>016-020>023-029>032-181900-
WESTERN PENNSYLVANIA

CITY           SKY/WX    TMP DP  RH WIND       PRES   REMARKS
ERIE           MOSUNNY   65  53  65 NE15      30.12R
MEADVILLE      MOSUNNY   66  47  50 VRB5      30.11S
FRANKLIN*      CLOUDY    66  46  48 NW5       30.12S
NEW CASTLE     NOT AVBL
BEAVER COUNTY  PTSUNNY   66  48  52 N6        30.11S
BUTLER*        PTSUNNY   64  45  48 N5        30.12S
PITTSBURGH INT MOSUNNY   66  45  46 VRB7      30.10S
PITTSBURGH     MOSUNNY   65  42  43 N8        30.09S
INDIANA*       SUNNY     64  41  42 CALM      30.12F
LATROBE        MOSUNNY   66  48  52 NW10      30.10S
WASHINGTON CO* PTSUNNY   70  46  43 N9        30.11S
$$

PAZ004>006-010>012-017>019-024>028-033>037-041-042-045-046-049>053-181900-
CENTRAL PENNSYLVANIA

CITY           SKY/WX    TMP DP  RH WIND       PRES   REMARKS
BRADFORD       PTSUNNY   60  45  57 N9        30.09S
DUBOIS         PTSUNNY   62  44  51 NW8       30.08F
CLEARFIELD     PTSUNNY   66  45  46 VRB7      30.08S
JOHNSTOWN      MOSUNNY   61  44  53 N5        30.09S
ALTOONA        MOSUNNY   68  45  43 W5        30.06F
STATE COLLEGE  PTSUNNY   68  46  45 NW6       30.07S
WILLIAMSPORT   PTSUNNY   71  45  39 VRB7      30.02F
SELINSGROVE    SUNNY     73  48  41 NW7       30.04S
FT INDIANTOWN  NOT AVBL
CAPITAL CITY   SUNNY     74  43  32 NW9       30.02F
HARRISBURG     MOSUNNY   76  45  33 W14       30.01F
YORK           MOSUNNY   74  45  35 N8        30.02F
$$

PAZ038>040-043-044-047-048-054-055-060>062-067>071-181900-
EASTERN PENNSYLVANIA

CITY           SKY/WX    TMP DP  RH WIND       PRES   REMARKS
SCRANTON       MOSUNNY   70  41  34 MISG      30.02F
MOUNT POCONO   PTSUNNY   64  42  44 VRB3      30.03F
ALLENTOWN      MOSUNNY   73  45  36 SW3       30.00F
QUAKERTOWN*    PTCLDY    73  50  43 W5        30.01F
READING        PTSUNNY   74  46  36 SW6       30.00F
LANCASTER      MOSUNNY   72  46  39 MISG      30.01F
COATESVILLE    MOCLDY    63  57  82 W5        30.03F
POTTSTOWN      PTSUNNY   71  51  49 SW6       30.01F
BLUE BELL      PTSUNNY   73  52  46 NW3       29.99F
DOYLESTOWN     MOSUNNY   72  50  45 SW6       29.99F
WILLOW GROVE   NOT AVBL
NORTH PHILA    MOSUNNY   76  47  35 VRB6      30.01F
PHILADELPHIA   PTSUNNY   73  53  49 SW9       30.00F
$$


USA.gov is the U.S. government's official web portal to all federal, state and local government web resources and services.